Погода Агинское

Погода Агинское : погода сейчас, прогноз погоды и архив. Всё, что Вы хотите узнать о погоде Агинское!

Хотите узнать прогноз погоды Агинское? Тогда Вам сюда: Погода Агинское

Поиск расширенной информации на нашем сайте:

Другие новости

Новости СМИ2

Главная страница сайта

Новости сайта

03.07.2017

Напоминаем, что на нашем специализированном сайте Метеоцентр.Азия вы можете получить высокодетализированные автоматические прогнозы погоды по пунктам России, СНГ и мира в авиационном формате (включающие направление и скорость ветра, видимость, явления погоды, количество и форму облачности, нижнюю и верхнюю границу облачности).

Рекомендуем: Сравнить цены на полиграфические и дизайнерские услуги www.poli33.ru.

Погода Агинское - сегодня

Время (UTC), дата Ветер
(°,м/с) 
Видим.   Явления Облачность Т
(°С)
Тd
(°С)
f(%) Тe
(°С)
Pmin
(гПа)
dP
(гПа)
Po
(мм)
O2
(г/м3)
Тmin Tmax R s Состояние
почвы
09 19.02.18 260 (З) 20000 м    10/4 600 м кучево-дожд., верхняя 
[Cb cap|Cs]
-6 -15.7 46 -9  1031.2  -1  741  307           
12 19.02.18 270 (З) 20000 м    8/4 1000 м верхняя 
[Sc|Ci fib]
-8 -16 53 -10  1031.9  0.3  741  309    -6       
15 19.02.18 270 (З) 20000 м  позёмок  ясно 
-8.9 -16 56 -13  1032  741  310           
21 19.02.18 270 (З) 4000 м  слаб. снег  10/10 2000 м 
[Ac As]
-9.3 -13.9 69 -12  1031.6  -0.3  741  310           
00 20.02.18 300 (СЗ) 3{10}  20000 м  {снег}  10/5 2000 м средняя, верхняя 
[Ac lent|Cs]
-8.9 -15.1 61 -12  1031.2  -0.4  741  310  -9.5    0.0  30  равномерный
сухой снег
100% 
12 20.02.18 280 (З) 4000 м  слаб. снег  10/10 2000 м 
[Ns]
-6.8 -10.1 77 -8  1029.1  -0.1  739  306    -6  0.9     
00 21.02.18 тихо ()   4000 м  слаб. снег  10/10 1200 м 
[Sc]
-9.8 -10.8 92 -10  1026.7  -0.8  737  309  -10    0.5  31  равномерный
сухой снег
100% 
09 21.02.18 330 (СЗ) 4000 м  слаб. снег  10/10 2000 м 
[Ns]
-5.7 -10.2 70 -7  1023.9  -0.7  736  304           
12 21.02.18 320 (СЗ) 20000 м  {снег}  10/3 1000 м средняя 
[Sc|As op]
-7.1 -11.3 72 -10  1024.2  0.1  736  305    -5.4  0.3     
15 21.02.18 290 (З) 20000 м    10/10 2000 м 
[Ac und]
-8.3 -11 81 -10  1024.1  -0.3  736  307           
18 21.02.18 тихо ()   4000 м  слаб. снег  10/10 2000 м 
[Ac und]
-10.2 -11.5 90 -10  1023.5  -0.9  735  309           
21 21.02.18 330 (СЗ) 4000 м  слаб. снег  10/0 средняя 
[As op]
-10.7 -11.7 92 -11  1023.1  -0.4  735  309           
00 22.02.18 тихо ()   4000 м  слаб. снег  10/0 средняя 
[As op]
-12.4 -13.5 91 -12  1023.2  -0.2  734  311  -12.4    34  равномерный
сухой снег
100% 
06 22.02.18 100 (В) 20000 м  {снег}  6/3 1000 м верхняя 
[Cu hum|Ci fib]
-8.1 -13.2 67 -8  1021.4  -0.7  734  306           
09 22.02.18 010 (С) 20000 м    10/0 верхняя 
[Cs]
-9.4 -13.5 72 -11  1020.8  -0.8  733  307           
12 22.02.18 тихо ()   20000 м    10/0 верхняя 
[Cs]
-14.2 -16.3 84 -14  1021.4  -0.2  733  313    -7.8  0.2     
15 22.02.18 010 (С) 20000 м    10/0 верхняя 
[Cs]
-15.7 -17.5 86 -16  1020.1  -1.6  732  314           
18 22.02.18 тихо ()   4000 м  слаб. снег  10/0 верхняя 
[Cs]
-13.3 -14.9 88 -13  1018.7  -0.9  731  311           
21 22.02.18 тихо ()   4000 м  слаб. снег  10/10 2000 м 
[Ns]
-12.4 -14 88 -12  1018.6  0.1  731  310           
00 23.02.18 270 (З) 20000 м  {снег}  6/0 верхняя 
[Cs]
-5.5 -9.3 75 -8  1019.2  1.7  732  302  -17    0.6  34  равномерный
сухой снег
100% 
12 23.02.18 270 (З) 20000 м    10/10 2000 м 
[Ns]
-5.5 -13.5 53 -8  1022.5  0.5  735  303    -3.1  0.0     
15 23.02.18 270 (З) 20000 м    8/0 верхняя 
[Cs]
-6.1 -14.4 52 -8  1022.3  -0.3  734  304           
18 23.02.18 тихо ()   20000 м    10/0 верхняя 
[Cs]
-13 -16.1 78 -13  1022.5  -0.9  734  312           
21 23.02.18 тихо ()   20000 м    ясно 
-15.8 -18.1 82 -16  1021.9  -1  733  315           
00 24.02.18 020 (С) 20000 м    10/0 верхняя 
[Cs]
-13.2 -15.8 81 -13  1021.4  -0.1  733  312  -16.1      31  равномерный
сухой снег
100% 
Время (UTC), дата Ветер
(°,м/с) 
Видим.   Явления Облачность Т
(°С)
Тd
(°С)
f(%) Тe
(°С)
Pmin
(гПа)
dP
(гПа)
Po
(мм)
O2
(г/м3)
Тmin Tmax R s Состояние
почвы

Для получения пояснительной информации подведите курсор к названию столбца.

ПОГОДА Агинское - архив

Всё, что Вы хотите узнать о погоде Агинское - удобно и подробно!

Выберите нужную дату (начиная с 1 января 2015* года) и нажмите кнопку "Найти".
Будут отображены архивные сводки погоды по пункту Агинское, начиная с указанной даты.


Отображать данные в формате CSV (для использования в таблицах Excel)


Внимание! Наш архив погоды предназначен исключительно для личного некоммерческого использования в познавательных целях. Если Вам необходимы официальные справки о состоянии погоды (для производственных, юридических, коммерческих и т.п. целей), обращайтесь в органы Росгидромета.

*Примечание: данная дата относится к архиву по метеостанциям СССР (Россия, СНГ, Балтия).
Архив по метеостанциям Зарубежной Европы и Азии (кроме Китая) хранится 10 дней, по другим регионам земного шара (Китай, Африка, Америка, Австралия, Океания) - 1 день.

Агинское - район местоположения метеостанции


Название, широта, долгота, высота метеостанции:
Агинское 55.2°ш. 94.9°д. 337 м над ур. моря [Российская Федерация]

Дополнительная информация

В oтличие oт бoльшинства пoгoдных сайтoв мы публикуем пoдрoбную метеoинфoрмацию в детальнoм прoфессиoнальнoм фoрмате.

Характеристики температуры и влажнoсти вoздуха измеряются на высoте 2 м в тени вдали oт зданий и деревьев.
Скoрoсть ветра измеряется на высoте 10 м (на урoвне рoста челoвека скoрoсть ветра ниже в 1.5-2 раза). Если метеoстанция нахoдится в гoрoде или в лесу, тo скoрoсть ветра занижена на 2-4 м/с пo сравнению с oткрытым местoм. Скoрoсть ветра над акватoриями крупных рек и oзёр, а также на вершинах хoлмoв на 2-5 м/с выше, чем в oбычных услoвиях.
Атмoсфернoе давление в разных тoчках местнoсти мoжет значительнo oтличаться oт давления на метеoстанции, в зависимoсти oт услoвий рельефа (при пoдъёме на 10 м давление пoнижается примернo на 1 мм рт.ст.).